| time (UTC) | temp F | wind direction | speed MPH | gust MPH | rain 1hr in | rain 24hr in | rain mn in | humidity % | barometer mb |
| 20260904190815 | 101 | 311 | 1.0 | 4.0 | 0.00 | 0.00 | 0.00 | 41 | 1014.6 |
| 20260904190310 | 100 | 333 | 1.0 | 7.0 | 0.00 | 0.00 | 0.00 | 42 | 1014.8 |
| 20260904185809 | 99 | 323 | 1.0 | 7.0 | 0.00 | 0.00 | 0.00 | 43 | 1014.7 |
| 20260904185338 | 97 | 274 | 1.0 | 7.0 | 0.00 | 0.00 | 0.00 | 47 | 1014.8 |
| 20260904184808 | 99 | 291 | 2.0 | 7.0 | 0.00 | 0.00 | 0.00 | 42 | 1014.9 |
| 20260904184307 | 100 | 157 | 2.0 | 4.0 | 0.00 | 0.00 | 0.00 | 41 | 1014.9 |
| 20260904184028 | 98 | 333 | 1.0 | 4.0 | 0.00 | 0.00 | 0.00 | 42 | 1015.1 |
| 20260904183304 | 97 | 349 | 1.0 | 9.0 | 0.00 | 0.00 | 0.00 | 43 | 1015.1 |
| 20260904182806 | 98 | 349 | 1.0 | 9.0 | 0.00 | 0.00 | 0.00 | 44 | 1015.2 |
| 20260904182306 | 98 | 310 | 2.0 | 5.0 | 0.00 | 0.00 | 0.00 | 43 | 1015.1 |
| 20260904181808 | 99 | 18 | 2.0 | 5.0 | 0.00 | 0.00 | 0.00 | 44 | 1015.3 |
| 20260904181300 | 98 | 354 | 1.0 | 7.0 | 0.00 | 0.00 | 0.00 | 45 | 1015.3 |
| 20260904180800 | 98 | 296 | 1.0 | 7.0 | 0.00 | 0.00 | 0.00 | 44 | 1015.4 |
| 20260904175758 | 97 | 324 | 1.0 | 7.0 | 0.00 | 0.00 | 0.00 | 45 | 1015.5 |
| 20260904175256 | 98 | 331 | 1.0 | 7.0 | 0.00 | 0.00 | 0.00 | 43 | 1015.6 |
| 20260904174756 | 97 | 319 | 1.0 | 6.0 | 0.00 | 0.00 | 0.00 | 46 | 1015.6 |
| 20260904174256 | 98 | 4 | 2.0 | 7.0 | 0.00 | 0.00 | 0.00 | 46 | 1015.7 |
| 20260904173757 | 97 | 314 | 1.0 | 7.0 | 0.00 | 0.00 | 0.00 | 47 | 1015.6 |
| 20260904173259 | 96 | 283 | 1.0 | 7.0 | 0.00 | 0.00 | 0.00 | 47 | 1015.7 |
| 20260904172758 | 97 | 136 | 1.0 | 7.0 | 0.00 | 0.00 | 0.00 | 48 | 1015.7 |
| 20260904172256 | 96 | 328 | 1.0 | 7.0 | 0.00 | 0.00 | 0.00 | 47 | 1015.8 |
| 20260904171755 | 97 | 17 | 1.0 | 6.0 | 0.00 | 0.00 | 0.00 | 46 | 1015.8 |
| 20260904171255 | 97 | 312 | 2.0 | 6.0 | 0.00 | 0.00 | 0.00 | 44 | 1015.8 |
| 20260904170754 | 98 | 328 | 2.0 | 7.0 | 0.00 | 0.00 | 0.00 | 45 | 1015.8 |
| 20260904170519 | 97 | 72 | 2.0 | 7.0 | 0.00 | 0.00 | 0.00 | 45 | 1015.8 |
| 20260904165755 | 96 | 316 | 2.0 | 7.0 | 0.00 | 0.00 | 0.00 | 46 | 1015.8 |
| 20260904165517 | 96 | 294 | 2.0 | 10.0 | 0.00 | 0.00 | 0.00 | 47 | 1015.9 |
| 20260904164750 | 97 | 299 | 2.0 | 10.0 | 0.00 | 0.00 | 0.00 | 46 | 1015.9 |
| 20260904164248 | 96 | 342 | 1.0 | 6.0 | 0.00 | 0.00 | 0.00 | 48 | 1016.0 |
| 20260904163751 | 95 | 358 | 1.0 | 5.0 | 0.00 | 0.00 | 0.00 | 49 | 1015.9 |
| 20260904163245 | 94 | 299 | 1.0 | 5.0 | 0.00 | 0.00 | 0.00 | 52 | 1016.0 |
| 20260904162756 | 93 | 317 | 1.0 | 4.0 | 0.00 | 0.00 | 0.00 | 56 | 1015.9 |
| 20260904162244 | 93 | 312 | 1.0 | 4.0 | 0.00 | 0.00 | 0.00 | 56 | 1015.9 |
| 20260904161742 | 92 | 292 | 1.0 | 3.0 | 0.00 | 0.00 | 0.00 | 57 | 1015.9 |
| 20260904161243 | 92 | 287 | 1.0 | 4.0 | 0.00 | 0.00 | 0.00 | 58 | 1015.9 |
| 20260904160741 | 91 | 11 | 2.0 | 4.0 | 0.00 | 0.00 | 0.00 | 58 | 1016.0 |
| 20260904160242 | 91 | 309 | 2.0 | 6.0 | 0.00 | 0.00 | 0.00 | 59 | 1016.0 |
| 20260904155958 | 90 | 302 | 1.0 | 6.0 | 0.00 | 0.00 | 0.00 | 60 | 1016.0 |
| 20260904155236 | 90 | 267 | 1.0 | 3.0 | 0.00 | 0.00 | 0.00 | 64 | 1016.0 |
| 20260904154740 | 89 | 312 | 1.0 | 2.0 | 0.00 | 0.00 | 0.00 | 64 | 1016.0 |
| 20260904154502 | 89 | 328 | 0.0 | 2.0 | 0.00 | 0.00 | 0.00 | 64 | 1016.1 |
| 20260904153750 | 88 | 306 | 0.0 | 5.0 | 0.00 | 0.00 | 0.00 | 67 | 1016.0 |
| 20260904153241 | 88 | 305 | 1.0 | 5.0 | 0.00 | 0.00 | 0.00 | 67 | 1016.0 |
| 20260904152733 | 87 | 352 | 1.0 | 4.0 | 0.00 | 0.00 | 0.00 | 68 | 1016.2 |
| 20260904152500 | 86 | 283 | 0.0 | 3.0 | 0.00 | 0.00 | 0.00 | 71 | 1016.2 |
| 20260904151749 | 86 | 304 | 0.0 | 1.0 | 0.00 | 0.00 | 0.00 | 73 | 1016.2 |
| 20260904151500 | 85 | 304 | 0.0 | 3.0 | 0.00 | 0.00 | 0.00 | 73 | 1016.2 |
| 20260904150732 | 85 | 304 | 0.0 | 3.0 | 0.00 | 0.00 | 0.00 | 73 | 1016.2 |
| 20260904150233 | 85 | 303 | 0.0 | 3.0 | 0.00 | 0.00 | 0.00 | 74 | 1016.2 |
| 20260904145732 | 84 | 296 | 0.0 | 2.0 | 0.00 | 0.00 | 0.00 | 76 | 1016.2 |
| 20260904145232 | 84 | 296 | 0.0 | 2.0 | 0.00 | 0.00 | 0.00 | 76 | 1016.2 |
| 20260904144733 | 83 | 296 | 0.0 | 2.0 | 0.00 | 0.00 | 0.00 | 77 | 1016.2 |
| 20260904144229 | 83 | 296 | 0.0 | 3.0 | 0.00 | 0.00 | 0.00 | 78 | 1016.3 |
| 20260904143730 | 82 | 296 | 0.0 | 3.0 | 0.00 | 0.00 | 0.00 | 79 | 1016.2 |
| 20260904143222 | 81 | 296 | 0.0 | 2.0 | 0.00 | 0.00 | 0.00 | 80 | 1016.1 |
| 20260904142941 | 81 | 296 | 0.0 | 2.0 | 0.00 | 0.00 | 0.00 | 82 | 1016.1 |
| 20260904142224 | 80 | 296 | 0.0 | 2.0 | 0.00 | 0.00 | 0.00 | 84 | 1016.1 |
| 20260904141730 | 80 | 296 | 0.0 | 4.0 | 0.00 | 0.00 | 0.00 | 85 | 1016.1 |
| 20260904141219 | 80 | 296 | 0.0 | 4.0 | 0.00 | 0.00 | 0.00 | 86 | 1016.1 |
| 20260904140719 | 79 | 241 | 0.0 | 2.0 | 0.00 | 0.00 | 0.00 | 87 | 1016.2 |
| 20260904140217 | 79 | 240 | 0.0 | 0.0 | 0.00 | 0.00 | 0.00 | 88 | 1016.1 |
| 20260904135716 | 79 | 240 | 0.0 | 1.0 | 0.00 | 0.00 | 0.00 | 88 | 1016.3 |
| 20260904135210 | 78 | 240 | 0.0 | 1.0 | 0.00 | 0.00 | 0.00 | 88 | 1016.2 |
| 20260904134709 | 78 | 240 | 0.0 | 0.0 | 0.00 | 0.00 | 0.00 | 89 | 1016.2 |
| 20260904134209 | 78 | 240 | 0.0 | 0.0 | 0.00 | 0.00 | 0.00 | 89 | 1016.2 |
| 20260904133704 | 78 | 240 | 0.0 | 0.0 | 0.00 | 0.00 | 0.00 | 89 | 1016.1 |
| 20260904133204 | 77 | 240 | 0.0 | 0.0 | 0.00 | 0.00 | 0.00 | 89 | 1016.1 |
| 20260904132704 | 77 | 240 | 0.0 | 0.0 | 0.00 | 0.00 | 0.00 | 89 | 1016.1 |
| 20260904132432 | 77 | 240 | 0.0 | 0.0 | 0.00 | 0.00 | 0.00 | 89 | 1016.1 |
| 20260904131200 | 77 | 240 | 0.0 | 0.0 | 0.00 | 0.00 | 0.00 | 89 | 1016.0 |
| 20260904130658 | 76 | 240 | 0.0 | 0.0 | 0.00 | 0.00 | 0.00 | 89 | 1016.0 |
| 20260904130158 | 76 | 240 | 0.0 | 0.0 | 0.00 | 0.00 | 0.00 | 89 | 1016.0 |
| 20260904125655 | 76 | 240 | 0.0 | 0.0 | 0.00 | 0.00 | 0.00 | 89 | 1016.0 |
| 20260904125156 | 76 | 240 | 0.0 | 0.0 | 0.00 | 0.00 | 0.00 | 88 | 1016.0 |
| 20260904124655 | 76 | 240 | 0.0 | 0.0 | 0.00 | 0.00 | 0.00 | 88 | 1016.0 |
| 20260904124157 | 76 | 240 | 0.0 | 0.0 | 0.00 | 0.00 | 0.00 | 88 | 1015.9 |
| 20260904123922 | 76 | 240 | 0.0 | 0.0 | 0.00 | 0.00 | 0.00 | 88 | 1015.8 |
| 20260904123154 | 75 | 240 | 0.0 | 0.0 | 0.00 | 0.00 | 0.00 | 88 | 1015.8 |
| 20260904122923 | 75 | 240 | 0.0 | 0.0 | 0.00 | 0.00 | 0.00 | 88 | 1015.7 |
| 20260904122156 | 75 | 240 | 0.0 | 0.0 | 0.00 | 0.00 | 0.00 | 88 | 1015.7 |
| 20260904121652 | 75 | 240 | 0.0 | 0.0 | 0.00 | 0.00 | 0.00 | 88 | 1015.7 |
| 20260904121149 | 75 | 240 | 0.0 | 0.0 | 0.00 | 0.00 | 0.00 | 88 | 1015.7 |
| 20260904120918 | 75 | 240 | 0.0 | 0.0 | 0.00 | 0.00 | 0.00 | 88 | 1015.7 |
| 20260904120147 | 75 | 240 | 0.0 | 0.0 | 0.00 | 0.00 | 0.00 | 88 | 1015.7 |
| 20260904115646 | 75 | 240 | 0.0 | 0.0 | 0.00 | 0.00 | 0.00 | 87 | 1015.7 |
| 20260904115142 | 75 | 240 | 0.0 | 0.0 | 0.00 | 0.00 | 0.00 | 87 | 1015.7 |
| 20260904114646 | 75 | 240 | 0.0 | 0.0 | 0.00 | 0.00 | 0.00 | 87 | 1015.6 |
| 20260904114142 | 75 | 240 | 0.0 | 0.0 | 0.00 | 0.00 | 0.00 | 87 | 1015.6 |
| 20260904113140 | 75 | 240 | 0.0 | 0.0 | 0.00 | 0.00 | 0.00 | 87 | 1015.5 |
| 20260904112646 | 75 | 240 | 0.0 | 0.0 | 0.00 | 0.00 | 0.00 | 87 | 1015.4 |
| 20260904112141 | 75 | 240 | 0.0 | 0.0 | 0.00 | 0.00 | 0.00 | 87 | 1015.3 |
| 20260904111641 | 75 | 240 | 0.0 | 0.0 | 0.00 | 0.00 | 0.00 | 87 | 1015.4 |
| 20260904111142 | 75 | 240 | 0.0 | 0.0 | 0.00 | 0.00 | 0.00 | 87 | 1015.4 |
| 20260904110135 | 75 | 240 | 0.0 | 0.0 | 0.00 | 0.00 | 0.00 | 87 | 1015.4 |
| 20260904105634 | 75 | 240 | 0.0 | 0.0 | 0.00 | 0.00 | 0.00 | 87 | 1015.2 |
| 20260904105136 | 75 | 240 | 0.0 | 0.0 | 0.00 | 0.00 | 0.00 | 87 | 1015.2 |
| 20260904104632 | 75 | 240 | 0.0 | 0.0 | 0.00 | 0.00 | 0.00 | 87 | 1015.1 |
| 20260904104137 | 75 | 240 | 0.0 | 0.0 | 0.00 | 0.00 | 0.00 | 87 | 1015.1 |
| 20260904103628 | 75 | 240 | 0.0 | 0.0 | 0.00 | 0.00 | 0.00 | 87 | 1015.1 |
| 20260904103126 | 75 | 240 | 0.0 | 0.0 | 0.00 | 0.00 | 0.00 | 87 | 1015.1 |
| 20260904102629 | 75 | 240 | 0.0 | 0.0 | 0.00 | 0.00 | 0.00 | 87 | 1015.1 |
| 20260904102129 | 75 | 240 | 0.0 | 0.0 | 0.00 | 0.00 | 0.00 | 87 | 1015.0 |
| 20260904101628 | 75 | 240 | 0.0 | 0.0 | 0.00 | 0.00 | 0.00 | 87 | 1015.0 |
| 20260904101126 | 75 | 240 | 0.0 | 0.0 | 0.00 | 0.00 | 0.00 | 87 | 1015.0 |
| 20260904100850 | 75 | 240 | 0.0 | 0.0 | 0.00 | 0.00 | 0.00 | 87 | 1015.0 |
| 20260904100122 | 75 | 240 | 0.0 | 0.0 | 0.00 | 0.00 | 0.00 | 87 | 1015.0 |
| 20260904095616 | 75 | 240 | 0.0 | 0.0 | 0.00 | 0.00 | 0.00 | 87 | 1015.0 |
| 20260904095115 | 75 | 240 | 0.0 | 0.0 | 0.00 | 0.00 | 0.00 | 87 | 1015.0 |
| 20260904094617 | 75 | 240 | 0.0 | 0.0 | 0.00 | 0.00 | 0.00 | 87 | 1014.9 |
| 20260904094112 | 75 | 240 | 0.0 | 0.0 | 0.00 | 0.00 | 0.00 | 87 | 1015.0 |
| 20260904093613 | 75 | 240 | 0.0 | 0.0 | 0.00 | 0.00 | 0.00 | 87 | 1015.0 |
| 20260904093108 | 75 | 240 | 0.0 | 0.0 | 0.00 | 0.00 | 0.00 | 87 | 1015.0 |
| 20260904092608 | 75 | 240 | 0.0 | 0.0 | 0.00 | 0.00 | 0.00 | 87 | 1014.9 |
| 20260904092107 | 75 | 240 | 0.0 | 0.0 | 0.00 | 0.00 | 0.00 | 87 | 1014.9 |
| 20260904091606 | 75 | 240 | 0.0 | 0.0 | 0.00 | 0.00 | 0.00 | 87 | 1014.9 |
| 20260904091105 | 75 | 240 | 0.0 | 0.0 | 0.00 | 0.00 | 0.00 | 87 | 1014.9 |
| 20260904090604 | 75 | 240 | 0.0 | 0.0 | 0.00 | 0.00 | 0.00 | 87 | 1015.0 |
| 20260904090117 | 75 | 240 | 0.0 | 0.0 | 0.00 | 0.00 | 0.00 | 88 | 1014.9 |
| 20260904085600 | 75 | 240 | 0.0 | 0.0 | 0.00 | 0.00 | 0.00 | 88 | 1015.0 |
| 20260904085100 | 75 | 240 | 0.0 | 0.0 | 0.00 | 0.00 | 0.00 | 88 | 1015.0 |
| 20260904084558 | 75 | 240 | 0.0 | 0.0 | 0.00 | 0.00 | 0.00 | 87 | 1015.0 |
| 20260904084056 | 75 | 240 | 0.0 | 0.0 | 0.00 | 0.00 | 0.00 | 87 | 1014.9 |
| 20260904083556 | 75 | 240 | 0.0 | 0.0 | 0.00 | 0.00 | 0.00 | 87 | 1014.8 |
| 20260904083056 | 75 | 240 | 0.0 | 0.0 | 0.00 | 0.00 | 0.00 | 87 | 1014.8 |
| 20260904082555 | 75 | 240 | 0.0 | 0.0 | 0.00 | 0.00 | 0.00 | 87 | 1014.8 |
| 20260904082056 | 75 | 240 | 0.0 | 0.0 | 0.00 | 0.00 | 0.00 | 87 | 1014.8 |
| 20260904081822 | 75 | 240 | 0.0 | 0.0 | 0.00 | 0.00 | 0.00 | 87 | 1014.8 |
| 20260904081055 | 75 | 240 | 0.0 | 0.0 | 0.00 | 0.00 | 0.00 | 87 | 1014.8 |
| 20260904080554 | 75 | 240 | 0.0 | 0.0 | 0.00 | 0.00 | 0.00 | 87 | 1014.8 |
| 20260904080328 | 75 | 240 | 0.0 | 0.0 | 0.00 | 0.00 | 0.00 | 87 | 1014.8 |
| 20260904075553 | 76 | 240 | 0.0 | 0.0 | 0.00 | 0.00 | 0.00 | 87 | 1014.8 |
| 20260904075048 | 76 | 240 | 0.0 | 0.0 | 0.00 | 0.00 | 0.00 | 87 | 1014.7 |
| 20260904074549 | 76 | 240 | 0.0 | 0.0 | 0.00 | 0.00 | 0.00 | 87 | 1014.6 |
| 20260904074045 | 76 | 240 | 0.0 | 0.0 | 0.00 | 0.00 | 0.00 | 86 | 1014.5 |
| 20260904073544 | 76 | 240 | 0.0 | 0.0 | 0.00 | 0.00 | 0.00 | 86 | 1014.6 |
| 20260904073312 | 76 | 240 | 0.0 | 0.0 | 0.00 | 0.00 | 0.00 | 86 | 1014.6 |
| 20260904072555 | 76 | 240 | 0.0 | 0.0 | 0.00 | 0.00 | 0.00 | 86 | 1014.5 |
| 20260904072044 | 76 | 240 | 0.0 | 0.0 | 0.00 | 0.00 | 0.00 | 86 | 1014.5 |
| 20260904071542 | 76 | 240 | 0.0 | 0.0 | 0.00 | 0.00 | 0.00 | 86 | 1014.5 |
| 20260904071040 | 76 | 240 | 0.0 | 0.0 | 0.00 | 0.00 | 0.00 | 86 | 1014.6 |
| 20260904070539 | 76 | 240 | 0.0 | 0.0 | 0.00 | 0.00 | 0.00 | 86 | 1014.6 |
| 20260904065532 | 76 | 240 | 0.0 | 0.0 | 0.00 | 0.00 | 0.00 | 86 | 1014.7 |
| 20260904065034 | 76 | 240 | 0.0 | 0.0 | 0.00 | 0.00 | 0.00 | 86 | 1014.7 |
| 20260904064532 | 76 | 240 | 0.0 | 0.0 | 0.00 | 0.00 | 0.00 | 86 | 1014.7 |
| 20260904064030 | 76 | 240 | 0.0 | 0.0 | 0.00 | 0.00 | 0.00 | 86 | 1014.7 |
| 20260904063532 | 76 | 240 | 0.0 | 0.0 | 0.00 | 0.00 | 0.00 | 85 | 1014.8 |
| 20260904063029 | 76 | 240 | 0.0 | 0.0 | 0.00 | 0.00 | 0.00 | 85 | 1014.8 |
| 20260904062527 | 76 | 240 | 0.0 | 0.0 | 0.00 | 0.00 | 0.00 | 85 | 1014.8 |
| 20260904062025 | 77 | 240 | 0.0 | 0.0 | 0.00 | 0.00 | 0.00 | 85 | 1014.8 |
| 20260904061521 | 77 | 240 | 0.0 | 0.0 | 0.00 | 0.00 | 0.00 | 85 | 1014.8 |
| 20260904061019 | 77 | 240 | 0.0 | 0.0 | 0.00 | 0.00 | 0.00 | 85 | 1014.8 |
| 20260904060517 | 77 | 240 | 0.0 | 0.0 | 0.00 | 0.00 | 0.00 | 84 | 1014.9 |
| 20260904060018 | 77 | 240 | 0.0 | 0.0 | 0.00 | 0.00 | 0.00 | 84 | 1014.9 |
| 20260904055517 | 77 | 240 | 0.0 | 0.0 | 0.00 | 0.00 | 0.00 | 84 | 1014.8 |
| 20260904055240 | 77 | 240 | 0.0 | 0.0 | 0.00 | 0.00 | 0.00 | 84 | 1014.8 |
| 20260904054519 | 77 | 240 | 0.0 | 0.0 | 0.00 | 0.00 | 0.00 | 84 | 1014.9 |
| 20260904054236 | 77 | 240 | 0.0 | 0.0 | 0.00 | 0.00 | 0.00 | 84 | 1014.9 |
| 20260904053514 | 77 | 240 | 0.0 | 0.0 | 0.00 | 0.00 | 0.00 | 84 | 1014.9 |
| 20260904053012 | 77 | 240 | 0.0 | 0.0 | 0.00 | 0.00 | 0.00 | 84 | 1015.0 |
| 20260904052520 | 77 | 240 | 0.0 | 0.0 | 0.00 | 0.00 | 0.00 | 84 | 1015.0 |
| 20260904052011 | 77 | 240 | 0.0 | 0.0 | 0.00 | 0.00 | 0.00 | 84 | 1015.0 |
| 20260904051509 | 77 | 240 | 0.0 | 0.0 | 0.00 | 0.00 | 0.00 | 83 | 1015.0 |
| 20260904051007 | 77 | 240 | 0.0 | 0.0 | 0.00 | 0.00 | 0.00 | 83 | 1015.1 |
| 20260904050734 | 78 | 240 | 0.0 | 0.0 | 0.00 | 0.00 | 0.00 | 83 | 1015.1 |
| 20260904050007 | 78 | 240 | 0.0 | 0.0 | 0.00 | 0.00 | 0.00 | 83 | 1015.0 |
| 20260904045511 | 78 | 240 | 0.0 | 0.0 | 0.00 | 0.00 | 0.00 | 82 | 1015.0 |
| 20260904045006 | 78 | 240 | 0.0 | 0.0 | 0.00 | 0.00 | 0.00 | 82 | 1015.1 |
| 20260904044506 | 78 | 240 | 0.0 | 0.0 | 0.00 | 0.00 | 0.00 | 82 | 1015.1 |
| 20260904044005 | 78 | 240 | 0.0 | 0.0 | 0.00 | 0.00 | 0.00 | 82 | 1015.1 |
| 20260904043506 | 78 | 240 | 0.0 | 0.0 | 0.00 | 0.00 | 0.00 | 82 | 1015.1 |
| 20260904043002 | 78 | 240 | 0.0 | 0.0 | 0.00 | 0.00 | 0.00 | 81 | 1015.0 |
| 20260904042504 | 78 | 240 | 0.0 | 0.0 | 0.00 | 0.00 | 0.00 | 81 | 1015.0 |
| 20260904042002 | 78 | 240 | 0.0 | 0.0 | 0.00 | 0.00 | 0.00 | 81 | 1015.0 |
| 20260904041504 | 78 | 240 | 0.0 | 0.0 | 0.00 | 0.00 | 0.00 | 81 | 1015.0 |
| 20260904041005 | 78 | 240 | 0.0 | 0.0 | 0.00 | 0.00 | 0.00 | 81 | 1015.0 |
| 20260904040505 | 79 | 240 | 0.0 | 0.0 | 0.00 | 0.00 | 0.00 | 80 | 1015.1 |
| 20260904040004 | 79 | 240 | 0.0 | 0.0 | 0.00 | 0.00 | 0.00 | 80 | 1015.0 |
| 20260904035504 | 79 | 240 | 0.0 | 0.0 | 0.00 | 0.00 | 0.00 | 80 | 1015.1 |
| 20260904035239 | 79 | 240 | 0.0 | 0.0 | 0.00 | 0.00 | 0.00 | 80 | 1015.1 |
| 20260904034503 | 79 | 240 | 0.0 | 0.0 | 0.00 | 0.00 | 0.00 | 79 | 1015.2 |
| 20260904034234 | 79 | 240 | 0.0 | 0.0 | 0.00 | 0.00 | 0.00 | 79 | 1015.1 |
| 20260904033502 | 80 | 240 | 0.0 | 0.0 | 0.00 | 0.00 | 0.00 | 79 | 1015.2 |
| 20260904032956 | 79 | 240 | 0.0 | 0.0 | 0.00 | 0.00 | 0.00 | 79 | 1015.3 |
| 20260904032454 | 79 | 240 | 0.0 | 0.0 | 0.00 | 0.00 | 0.00 | 79 | 1015.3 |
| 20260904032222 | 80 | 240 | 0.0 | 0.0 | 0.00 | 0.00 | 0.00 | 79 | 1015.3 |
| 20260904031450 | 80 | 240 | 0.0 | 0.0 | 0.00 | 0.00 | 0.00 | 78 | 1015.3 |
| 20260904030948 | 80 | 240 | 0.0 | 0.0 | 0.00 | 0.00 | 0.00 | 79 | 1015.3 |
| 20260904030447 | 80 | 240 | 0.0 | 0.0 | 0.00 | 0.00 | 0.00 | 78 | 1015.3 |
| 20260904025946 | 80 | 240 | 0.0 | 0.0 | 0.00 | 0.00 | 0.00 | 78 | 1015.3 |
| 20260904025445 | 80 | 240 | 0.0 | 0.0 | 0.00 | 0.00 | 0.00 | 77 | 1015.3 |
| 20260904024944 | 81 | 240 | 0.0 | 0.0 | 0.00 | 0.00 | 0.00 | 76 | 1015.3 |
| 20260904024446 | 81 | 240 | 0.0 | 0.0 | 0.00 | 0.00 | 0.00 | 75 | 1015.4 |
| 20260904024212 | 81 | 240 | 0.0 | 0.0 | 0.00 | 0.00 | 0.00 | 75 | 1015.4 |
| 20260904023703 | 81 | 240 | 0.0 | 0.0 | 0.00 | 0.00 | 0.00 | 76 | 1015.4 |
| 20260904022946 | 81 | 240 | 0.0 | 0.0 | 0.00 | 0.00 | 0.00 | 77 | 1015.4 |
| 20260904022442 | 81 | 240 | 0.0 | 0.0 | 0.00 | 0.00 | 0.00 | 77 | 1015.3 |
| 20260904021940 | 82 | 240 | 0.0 | 0.0 | 0.00 | 0.00 | 0.00 | 76 | 1015.3 |
| 20260904021440 | 82 | 240 | 0.0 | 0.0 | 0.00 | 0.00 | 0.00 | 75 | 1015.3 |
| 20260904020952 | 82 | 240 | 0.0 | 0.0 | 0.00 | 0.00 | 0.00 | 73 | 1015.3 |
| 20260904020442 | 83 | 240 | 0.0 | 0.0 | 0.00 | 0.00 | 0.00 | 73 | 1015.4 |
| 20260904015951 | 83 | 240 | 0.0 | 0.0 | 0.00 | 0.00 | 0.00 | 73 | 1015.3 |
| 20260904015705 | 83 | 240 | 0.0 | 0.0 | 0.00 | 0.00 | 0.00 | 73 | 1015.2 |
| 20260904014936 | 83 | 240 | 0.0 | 0.0 | 0.00 | 0.00 | 0.00 | 74 | 1015.2 |
| 20260904014443 | 83 | 240 | 0.0 | 0.0 | 0.00 | 0.00 | 0.00 | 73 | 1015.2 |
| 20260904013932 | 83 | 240 | 0.0 | 0.0 | 0.00 | 0.00 | 0.00 | 72 | 1015.1 |
| 20260904013429 | 83 | 240 | 0.0 | 0.0 | 0.00 | 0.00 | 0.00 | 72 | 1015.1 |
| 20260904012926 | 84 | 240 | 0.0 | 0.0 | 0.00 | 0.00 | 0.00 | 72 | 1015.0 |
| 20260904012425 | 84 | 240 | 0.0 | 0.0 | 0.00 | 0.00 | 0.00 | 71 | 1015.0 |
| 20260904011922 | 84 | 240 | 0.0 | 0.0 | 0.00 | 0.00 | 0.00 | 70 | 1015.0 |
| 20260904011647 | 85 | 240 | 0.0 | 0.0 | 0.00 | 0.00 | 0.00 | 70 | 1014.9 |
| 20260904010925 | 85 | 240 | 0.0 | 0.0 | 0.00 | 0.00 | 0.00 | 70 | 1014.8 |
| 20260904010417 | 85 | 240 | 0.0 | 0.0 | 0.00 | 0.00 | 0.00 | 70 | 1014.9 |
| 20260904005916 | 85 | 240 | 0.0 | 0.0 | 0.00 | 0.00 | 0.00 | 70 | 1014.8 |
| 20260904005418 | 85 | 240 | 0.0 | 0.0 | 0.00 | 0.00 | 0.00 | 70 | 1014.7 |
| 20260904004408 | 86 | 240 | 0.0 | 0.0 | 0.00 | 0.00 | 0.00 | 70 | 1014.5 |
| 20260904003913 | 86 | 240 | 0.0 | 0.0 | 0.00 | 0.00 | 0.00 | 70 | 1014.5 |
| 20260904003405 | 86 | 240 | 0.0 | 0.0 | 0.00 | 0.00 | 0.00 | 69 | 1014.5 |
| 20260904002904 | 86 | 240 | 0.0 | 0.0 | 0.00 | 0.00 | 0.00 | 71 | 1014.3 |
| 20260904001902 | 88 | 240 | 0.0 | 0.0 | 0.00 | 0.00 | 0.00 | 67 | 1014.2 |
| 20260904001402 | 89 | 240 | 0.0 | 0.0 | 0.00 | 0.00 | 0.00 | 66 | 1014.1 |
| 20260904000859 | 89 | 240 | 0.0 | 0.0 | 0.00 | 0.00 | 0.00 | 66 | 1014.1 |
| 20260904000624 | 89 | 240 | 0.0 | 0.0 | 0.00 | 0.00 | 0.00 | 65 | 1014.1 |
| 20260903235855 | 90 | 240 | 0.0 | 0.0 | 0.00 | 0.00 | 0.00 | 63 | 1014.1 |
| 20260903235351 | 91 | 240 | 0.0 | 0.0 | 0.00 | 0.00 | 0.00 | 63 | 1014.1 |
| 20260903235116 | 91 | 240 | 0.0 | 0.0 | 0.00 | 0.00 | 0.00 | 63 | 1014.1 |
| 20260903234352 | 91 | 240 | 0.0 | 0.0 | 0.00 | 0.00 | 0.00 | 63 | 1014.0 |
| 20260903233850 | 92 | 240 | 0.0 | 0.0 | 0.00 | 0.00 | 0.00 | 61 | 1014.0 |
| 20260903232848 | 93 | 240 | 0.0 | 0.0 | 0.00 | 0.00 | 0.00 | 57 | 1014.0 |
| 20260903232350 | 93 | 240 | 0.0 | 0.0 | 0.00 | 0.00 | 0.00 | 55 | 1013.9 |
| 20260903231845 | 94 | 240 | 0.0 | 0.0 | 0.00 | 0.00 | 0.00 | 53 | 1013.9 |
| 20260903231612 | 94 | 240 | 0.0 | 0.0 | 0.00 | 0.00 | 0.00 | 52 | 1014.0 |
| 20260903230842 | 94 | 240 | 0.0 | 0.0 | 0.00 | 0.00 | 0.00 | 51 | 1013.9 |
| 20260903230337 | 94 | 240 | 0.0 | 0.0 | 0.00 | 0.00 | 0.00 | 50 | 1013.8 |
| 20260903225836 | 95 | 240 | 0.0 | 0.0 | 0.00 | 0.00 | 0.00 | 49 | 1013.9 |
| 20260903225337 | 95 | 240 | 0.0 | 0.0 | 0.00 | 0.00 | 0.00 | 48 | 1013.9 |
| 20260903225101 | 96 | 240 | 0.0 | 0.0 | 0.00 | 0.00 | 0.00 | 47 | 1013.9 |
| 20260903224603 | 96 | 240 | 0.0 | 1.0 | 0.00 | 0.00 | 0.00 | 45 | 1013.9 |
| 20260903223835 | 96 | 241 | 0.0 | 1.0 | 0.00 | 0.00 | 0.00 | 46 | 1013.9 |
| 20260903223335 | 96 | 241 | 0.0 | 1.0 | 0.00 | 0.00 | 0.00 | 45 | 1013.9 |
| 20260903222834 | 96 | 241 | 0.0 | 1.0 | 0.00 | 0.00 | 0.00 | 46 | 1013.8 |
| 20260903222057 | 97 | 241 | 1.0 | 3.0 | 0.00 | 0.00 | 0.00 | 45 | 1013.8 |
| 20260903221329 | 97 | 221 | 0.0 | 2.0 | 0.00 | 0.00 | 0.00 | 45 | 1013.8 |
| 20260903220829 | 97 | 214 | 0.0 | 1.0 | 0.00 | 0.00 | 0.00 | 44 | 1013.8 |
| 20260903220328 | 97 | 214 | 0.0 | 2.0 | 0.00 | 0.00 | 0.00 | 43 | 1013.8 |
| 20260903215833 | 97 | 214 | 0.0 | 2.0 | 0.00 | 0.00 | 0.00 | 44 | 1013.9 |
| 20260903215331 | 97 | 211 | 0.0 | 1.0 | 0.00 | 0.00 | 0.00 | 44 | 1014.0 |
| 20260903214830 | 97 | 212 | 0.0 | 1.0 | 0.00 | 0.00 | 0.00 | 43 | 1013.9 |
| 20260903214328 | 97 | 212 | 0.0 | 2.0 | 0.00 | 0.00 | 0.00 | 43 | 1013.9 |
| 20260903213833 | 97 | 210 | 0.0 | 3.0 | 0.00 | 0.00 | 0.00 | 43 | 1014.0 |
| 20260903213328 | 97 | 279 | 0.0 | 3.0 | 0.00 | 0.00 | 0.00 | 42 | 1014.1 |
| 20260903212826 | 98 | 281 | 0.0 | 1.0 | 0.00 | 0.00 | 0.00 | 43 | 1014.1 |
| 20260903211827 | 98 | 281 | 1.0 | 4.0 | 0.00 | 0.00 | 0.00 | 45 | 1014.2 |
| 20260903211330 | 98 | 285 | 0.0 | 4.0 | 0.00 | 0.00 | 0.00 | 43 | 1014.3 |
| 20260903210827 | 98 | 284 | 0.0 | 2.0 | 0.00 | 0.00 | 0.00 | 42 | 1014.3 |
| 20260903210328 | 98 | 199 | 0.0 | 3.0 | 0.00 | 0.00 | 0.00 | 45 | 1014.4 |
| 20260903205825 | 98 | 199 | 1.0 | 3.0 | 0.00 | 0.00 | 0.00 | 43 | 1014.4 |
| 20260903205319 | 99 | 315 | 1.0 | 4.0 | 0.00 | 0.00 | 0.00 | 42 | 1014.5 |
| 20260903204821 | 99 | 316 | 1.0 | 4.0 | 0.00 | 0.00 | 0.00 | 42 | 1014.5 |
| 20260903204332 | 98 | 312 | 1.0 | 4.0 | 0.00 | 0.00 | 0.00 | 44 | 1014.5 |
| 20260903203818 | 98 | 322 | 1.0 | 3.0 | 0.00 | 0.00 | 0.00 | 45 | 1014.6 |
| 20260903203318 | 97 | 290 | 0.0 | 2.0 | 0.00 | 0.00 | 0.00 | 45 | 1014.7 |
| 20260903202818 | 96 | 290 | 0.0 | 2.0 | 0.00 | 0.00 | 0.00 | 50 | 1014.6 |
| 20260903202541 | 94 | 290 | 0.0 | 0.0 | 0.00 | 0.00 | 0.00 | 51 | 1014.7 |
| 20260903201817 | 95 | 290 | 1.0 | 3.0 | 0.00 | 0.00 | 0.00 | 48 | 1014.7 |
| 20260903201534 | 96 | 290 | 1.0 | 3.0 | 0.00 | 0.00 | 0.00 | 46 | 1014.8 |
| 20260903200814 | 97 | 281 | 0.0 | 3.0 | 0.00 | 0.00 | 0.00 | 43 | 1014.8 |
| 20260903200312 | 96 | 285 | 0.0 | 2.0 | 0.00 | 0.00 | 0.00 | 46 | 1014.9 |
| 20260903195813 | 96 | 285 | 0.0 | 3.0 | 0.00 | 0.00 | 0.00 | 48 | 1015.0 |
| 20260903195538 | 97 | 285 | 0.0 | 3.0 | 0.00 | 0.00 | 0.00 | 47 | 1015.0 |
| 20260903194814 | 97 | 255 | 0.0 | 0.0 | 0.00 | 0.00 | 0.00 | 46 | 1015.0 |
| 20260903194551 | 96 | 254 | 0.0 | 0.0 | 0.00 | 0.00 | 0.00 | 48 | 1015.0 |
| 20260903193816 | 96 | 254 | 0.0 | 0.0 | 0.00 | 0.00 | 0.00 | 49 | 1015.0 |
| 20260903193308 | 93 | 254 | 0.0 | 0.0 | 0.00 | 0.00 | 0.00 | 53 | 1015.1 |
| 20260903192811 | 94 | 254 | 0.0 | 0.0 | 0.00 | 0.00 | 0.00 | 49 | 1015.2 |
| 20260903192312 | 95 | 254 | 0.0 | 1.0 | 0.00 | 0.00 | 0.00 | 46 | 1015.3 |
| 20260903191807 | 96 | 254 | 0.0 | 1.0 | 0.00 | 0.00 | 0.00 | 47 | 1015.3 |
| 20260903191537 | 96 | 255 | 0.0 | 4.0 | 0.00 | 0.00 | 0.00 | 46 | 1015.4 |